| time (UTC) | temp C | wind direction | speed KPH | gust KPH | rain 1hr cm | rain 24hr cm | rain mn cm | humidity % | barometer mb |
| 20260509224502 | 32 | 171 | 1.6 | 0.0 | 0.00 | 0.00 | 0.00 | 43 | 1005.7 |
| 20260509223002 | 32 | 171 | 4.8 | 0.0 | 0.00 | 0.00 | 0.00 | 43 | 1005.8 |
| 20260509221503 | 32 | 200 | 0.0 | 0.0 | 0.00 | 0.00 | 0.00 | 41 | 1005.8 |
| 20260509220001 | 32 | 222 | 3.2 | 0.0 | 0.00 | 0.00 | 0.00 | 40 | 1005.9 |
| 20260509214501 | 33 | 82 | 0.0 | 0.0 | 0.00 | 0.00 | 0.00 | 38 | 1005.9 |
| 20260509213104 | 32 | 57 | 3.2 | 0.0 | 0.00 | 0.00 | 0.00 | 37 | 1006.1 |
| 20260509211604 | 32 | 300 | 1.6 | 0.0 | 0.00 | 0.00 | 0.00 | 38 | 1006.3 |
| 20260509210101 | 32 | 154 | 3.2 | 0.0 | 0.00 | 0.00 | 0.00 | 38 | 1006.6 |
| 20260509204601 | 32 | 63 | 3.2 | 0.0 | 0.00 | 0.00 | 0.00 | 36 | 1006.7 |
| 20260509203054 | 32 | 105 | 1.6 | 0.0 | 0.00 | 0.00 | 0.00 | 40 | 1007.0 |
| 20260509201554 | 32 | 324 | 3.2 | 0.0 | 0.00 | 0.00 | 0.00 | 41 | 1007.1 |
| 20260509200053 | 32 | 328 | 3.2 | 0.0 | 0.00 | 0.00 | 0.00 | 43 | 1007.3 |
| 20260509194554 | 32 | 40 | 1.6 | 0.0 | 0.00 | 0.00 | 0.00 | 45 | 1007.5 |
| 20260509193047 | 31 | 246 | 3.2 | 0.0 | 0.00 | 0.00 | 0.00 | 48 | 1007.7 |
| 20260509191552 | 31 | 22 | 1.6 | 0.0 | 0.00 | 0.00 | 0.00 | 50 | 1007.7 |
| 20260509190047 | 31 | 247 | 4.8 | 0.0 | 0.00 | 0.00 | 0.00 | 47 | 1007.9 |
| 20260509184543 | 30 | 207 | 1.6 | 0.0 | 0.00 | 0.00 | 0.00 | 49 | 1008.0 |
| 20260509183042 | 31 | 267 | 1.6 | 0.0 | 0.00 | 0.00 | 0.00 | 48 | 1008.1 |
| 20260509181541 | 30 | 234 | 3.2 | 0.0 | 0.00 | 0.00 | 0.00 | 49 | 1008.4 |
| 20260509180037 | 30 | 186 | 3.2 | 0.0 | 0.00 | 0.00 | 0.00 | 49 | 1008.6 |
| 20260509174536 | 30 | 234 | 4.8 | 0.0 | 0.00 | 0.00 | 0.00 | 49 | 1008.6 |
| 20260509173033 | 30 | 283 | 3.2 | 0.0 | 0.00 | 0.00 | 0.00 | 55 | 1008.8 |
| 20260509171530 | 29 | 325 | 1.6 | 0.0 | 0.00 | 0.00 | 0.00 | 56 | 1008.9 |
| 20260509170024 | 28 | 217 | 1.6 | 0.0 | 0.00 | 0.00 | 0.00 | 57 | 1009.0 |
| 20260509164520 | 28 | 340 | 4.8 | 0.0 | 0.00 | 0.00 | 0.00 | 56 | 1009.1 |
| 20260509163021 | 27 | 273 | 6.4 | 0.0 | 0.00 | 0.00 | 0.00 | 57 | 1009.3 |
| 20260509161514 | 27 | 257 | 4.8 | 0.0 | 0.00 | 0.00 | 0.00 | 60 | 1009.3 |
| 20260509160013 | 27 | 360 | 3.2 | 0.0 | 0.00 | 0.00 | 0.00 | 62 | 1009.3 |
| 20260509154507 | 26 | 355 | 1.6 | 0.0 | 0.00 | 0.00 | 0.00 | 65 | 1009.2 |
| 20260509153007 | 26 | 17 | 4.8 | 0.0 | 0.00 | 0.00 | 0.00 | 66 | 1009.1 |
| 20260509151601 | 25 | 5 | 3.2 | 0.0 | 0.00 | 0.00 | 0.00 | 69 | 1009.1 |
| 20260509150055 | 25 | 306 | 6.4 | 0.0 | 0.00 | 0.00 | 0.00 | 67 | 1009.1 |
| 20260509144606 | 24 | 355 | 3.2 | 0.0 | 0.00 | 0.00 | 0.00 | 70 | 1009.1 |
| 20260509143049 | 23 | 315 | 3.2 | 0.0 | 0.00 | 0.00 | 0.00 | 76 | 1009.2 |
| 20260509141542 | 22 | 291 | 4.8 | 0.0 | 0.00 | 0.00 | 0.00 | 79 | 1009.4 |
| 20260509140056 | 22 | 290 | 6.4 | 0.0 | 0.00 | 0.00 | 0.00 | 80 | 1009.3 |
| 20260509134535 | 21 | 297 | 3.2 | 0.0 | 0.00 | 0.00 | 0.00 | 82 | 1009.4 |
| 20260509133032 | 21 | 283 | 4.8 | 0.0 | 0.00 | 0.00 | 0.00 | 82 | 1009.2 |
| 20260509131539 | 20 | 284 | 3.2 | 0.0 | 0.00 | 0.00 | 0.00 | 83 | 1009.2 |
| 20260509130029 | 20 | 230 | 3.2 | 0.0 | 0.00 | 0.00 | 0.00 | 84 | 1009.2 |
| 20260509124533 | 20 | 197 | 1.6 | 0.0 | 0.00 | 0.00 | 0.00 | 85 | 1009.3 |
| 20260509123026 | 18 | 190 | 0.0 | 0.0 | 0.00 | 0.00 | 0.00 | 84 | 1009.1 |
| 20260509121520 | 18 | 190 | 0.0 | 0.0 | 0.00 | 0.00 | 0.00 | 83 | 1009.1 |
| 20260509120017 | 18 | 217 | 0.0 | 0.0 | 0.00 | 0.00 | 0.00 | 82 | 1008.9 |
| 20260509114513 | 19 | 288 | 0.0 | 0.0 | 0.00 | 0.00 | 0.00 | 81 | 1008.7 |
| 20260509113009 | 20 | 288 | 0.0 | 0.0 | 0.00 | 0.00 | 0.00 | 80 | 1008.4 |
| 20260509111508 | 20 | 288 | 0.0 | 0.0 | 0.00 | 0.00 | 0.00 | 78 | 1008.0 |
| 20260509110006 | 20 | 288 | 1.6 | 0.0 | 0.00 | 0.00 | 0.00 | 77 | 1008.1 |
| 20260509104506 | 20 | 282 | 3.2 | 0.0 | 0.00 | 0.00 | 0.00 | 76 | 1007.9 |
| 20260509103004 | 20 | 247 | 3.2 | 0.0 | 0.00 | 0.00 | 0.00 | 79 | 1007.9 |
| 20260509101501 | 21 | 238 | 3.2 | 0.0 | 0.00 | 0.00 | 0.00 | 84 | 1008.0 |
| 20260509100103 | 21 | 288 | 4.8 | 0.0 | 0.00 | 0.00 | 0.00 | 86 | 1008.0 |
| 20260509094559 | 21 | 191 | 9.7 | 0.0 | 0.00 | 0.00 | 0.00 | 86 | 1006.9 |
| 20260509093058 | 21 | 134 | 8.0 | 0.0 | 0.00 | 0.00 | 0.00 | 88 | 1005.2 |
| 20260509091556 | 21 | 142 | 6.4 | 0.0 | 0.00 | 0.00 | 0.00 | 88 | 1004.7 |
| 20260509090105 | 21 | 157 | 9.7 | 0.0 | 0.00 | 0.00 | 0.00 | 88 | 1005.4 |
| 20260509084558 | 21 | 165 | 11.3 | 0.0 | 0.00 | 0.00 | 0.00 | 89 | 1005.6 |
| 20260509083057 | 21 | 161 | 9.7 | 0.0 | 0.00 | 0.00 | 0.00 | 90 | 1006.0 |
| 20260509081545 | 20 | 152 | 6.4 | 0.0 | 0.00 | 0.00 | 0.00 | 90 | 1006.7 |
| 20260509080047 | 20 | 138 | 4.8 | 0.0 | 0.00 | 0.00 | 0.00 | 90 | 1007.1 |
| 20260509074542 | 20 | 123 | 4.8 | 0.0 | 0.00 | 0.00 | 0.00 | 90 | 1007.5 |
| 20260509073039 | 21 | 171 | 1.6 | 0.0 | 0.00 | 0.00 | 0.00 | 90 | 1008.6 |
| 20260509071536 | 21 | 190 | 3.2 | 0.0 | 0.00 | 0.00 | 0.00 | 90 | 1009.4 |
| 20260509070036 | 20 | 275 | 4.8 | 0.0 | 0.00 | 0.00 | 0.00 | 91 | 1010.4 |
| 20260509064532 | 20 | 249 | 1.6 | 0.0 | 0.00 | 0.00 | 0.00 | 90 | 1010.4 |
| 20260509063032 | 20 | 250 | 0.0 | 0.0 | 0.00 | 0.00 | 0.00 | 90 | 1010.1 |
| 20260509061528 | 20 | 250 | 1.6 | 0.0 | 0.00 | 0.00 | 0.00 | 89 | 1010.1 |
| 20260509060024 | 20 | 250 | 1.6 | 0.0 | 0.00 | 0.00 | 0.00 | 89 | 1010.0 |
| 20260509054526 | 20 | 217 | 1.6 | 0.0 | 0.00 | 0.00 | 0.00 | 88 | 1009.7 |
| 20260509053020 | 21 | 134 | 0.0 | 0.0 | 0.00 | 0.00 | 0.00 | 88 | 1009.4 |
| 20260509051517 | 21 | 134 | 1.6 | 0.0 | 0.00 | 0.00 | 0.00 | 88 | 1008.8 |
| 20260509050014 | 21 | 134 | 1.6 | 0.0 | 0.00 | 0.00 | 0.00 | 87 | 1008.6 |
| 20260509044515 | 21 | 134 | 0.0 | 0.0 | 0.00 | 0.00 | 0.00 | 87 | 1008.9 |
| 20260509043012 | 21 | 134 | 0.0 | 0.0 | 0.00 | 0.00 | 0.00 | 86 | 1008.8 |
| 20260509041512 | 21 | 134 | 0.0 | 0.0 | 0.00 | 0.00 | 0.00 | 86 | 1009.0 |
| 20260509040011 | 21 | 134 | 0.0 | 0.0 | 0.00 | 0.00 | 0.00 | 86 | 1008.7 |
| 20260509034510 | 22 | 135 | 3.2 | 0.0 | 0.00 | 0.00 | 0.00 | 86 | 1008.3 |
| 20260509033010 | 22 | 139 | 3.2 | 0.0 | 0.00 | 0.00 | 0.00 | 85 | 1008.0 |
| 20260509031509 | 22 | 96 | 4.8 | 0.0 | 0.00 | 0.00 | 0.00 | 85 | 1007.7 |
| 20260509030009 | 22 | 121 | 6.4 | 0.0 | 0.00 | 0.00 | 0.00 | 84 | 1007.5 |
| 20260509024509 | 22 | 136 | 6.4 | 0.0 | 0.00 | 0.00 | 0.00 | 84 | 1006.9 |
| 20260509023008 | 22 | 123 | 4.8 | 0.0 | 0.00 | 0.00 | 0.00 | 83 | 1007.2 |
| 20260509021507 | 22 | 134 | 3.2 | 0.0 | 0.00 | 0.00 | 0.00 | 83 | 1007.3 |
| 20260509020006 | 22 | 131 | 1.6 | 0.0 | 0.00 | 0.00 | 0.00 | 82 | 1007.2 |
| 20260509014509 | 22 | 125 | 0.0 | 0.0 | 0.00 | 0.00 | 0.00 | 81 | 1007.4 |
| 20260509013005 | 22 | 125 | 0.0 | 0.0 | 0.00 | 0.00 | 0.00 | 81 | 1007.3 |
| 20260509011504 | 23 | 124 | 0.0 | 0.0 | 0.00 | 0.00 | 0.00 | 80 | 1007.0 |
| 20260509010010 | 23 | 124 | 0.0 | 0.0 | 0.00 | 0.00 | 0.00 | 80 | 1006.8 |
| 20260509004502 | 23 | 131 | 1.6 | 0.0 | 0.00 | 0.00 | 0.00 | 80 | 1006.5 |
| 20260509003101 | 23 | 141 | 1.6 | 0.0 | 0.00 | 0.00 | 0.00 | 79 | 1006.6 |
| 20260509003002 | 23 | 134 | 1.6 | 0.0 | 0.00 | 0.00 | 0.00 | 79 | 1006.7 |
| 20260509001559 | 23 | 134 | 0.0 | 0.0 | 0.00 | 0.00 | 0.00 | 78 | 1006.8 |
| 20260509000059 | 23 | 134 | 0.0 | 0.0 | 0.00 | 0.00 | 0.00 | 78 | 1006.9 |
| 20260508234556 | 23 | 134 | 0.0 | 0.0 | 0.00 | 0.00 | 0.00 | 78 | 1007.2 |
| 20260508233109 | 23 | 132 | 1.6 | 0.0 | 0.00 | 0.00 | 0.00 | 78 | 1007.0 |
| 20260508231555 | 23 | 134 | 1.6 | 0.0 | 0.00 | 0.00 | 0.00 | 78 | 1007.1 |
| 20260508230100 | 23 | 146 | 6.4 | 0.0 | 0.00 | 0.00 | 0.00 | 77 | 1007.1 |